This demonstration page uses our WeatherBlox Daily Observations layout. Learn more.

Left ArrowRight Arrow

Hourly Observations for April 14, 2018

Temp ( °F °C ) Dew Point ( °F °C ) Humidity (%) Winds ( mph kmh ) Pressure ( in mb ) Visibility ( mi km ) Precip ( " mm )
12:59 am 00:59 Clear 65 18.3 56 13.3 73 73 SSW 13 20 30.08 1019 10 16 0.00 0.00
1:59 am 01:59 Clear 64 17.8 55 12.8 73 73 SSW 16 26 30.08 1019 10 16 0.00 0.00
2:59 am 02:59 Clear 64 17.8 55 12.8 73 73 SSW 10 17 30.07 1018 10 16 0.00 0.00
3:59 am 03:59 Clear 63 17.2 55 12.8 76 76 SSW 12 19 30.06 1018 10 16 0.00 0.00
4:59 am 04:59 Clear 63 17.2 55 12.8 76 76 SSW 14 22 30.06 1018 10 16 0.00 0.00
5:59 am 05:59 Partly Cloudy 62 16.7 54 12.2 75 75 SSW 13 20 30.08 1019 10 16 0.00 0.00
6:59 am 06:59 Partly Cloudy 62 16.7 54 12.2 75 75 SSW 13 20 30.10 1019 10 16 0.00 0.00
7:59 am 07:59 Partly Cloudy 64 17.8 55 12.8 73 73 SW 15 24 30.11 1020 10 16 0.00 0.00
8:59 am 08:59 Partly Cloudy 68 20 56 13.3 65 65 SW 14 22 30.11 1020 10 16 0.00 0.00
9:59 am 09:59 Partly Cloudy 71 21.7 56 13.3 59 59 SW 14 22 30.11 1020 10 16 0.00 0.00
10:59 am 10:59 Partly Cloudy 74 23.3 56 13.3 54 54 SW 13 20 30.10 1019 10 16 0.00 0.00
11:59 am 11:59 Partly Cloudy 76 24.4 55 12.8 48 48 SW 16 26 30.09 1019 10 16 0.00 0.00
12:59 pm 12:59 Partly Cloudy 79 26.1 55 12.8 44 44 SW 14 22 30.07 1018 10 16 0.00 0.00
1:59 pm 13:59 Mostly Cloudy 80 26.7 56 13.3 44 44 SW 18 30 30.04 1017 10 16 0.00 0.00
2:59 pm 14:59 Mostly Cloudy 81 27.2 55 12.8 41 41 SW 13 20 30.02 1017 10 16 0.00 0.00
3:59 pm 15:59 Mostly Cloudy 81 27.2 54 12.2 39 39 SW 18 30 29.99 1016 10 16 0.00 0.00
4:59 pm 16:59 Mostly Cloudy 80 26.7 54 12.2 41 41 SSW 15 24 29.97 1015 10 16 0.00 0.00
5:59 pm 17:59 Mostly Cloudy 79 26.1 53 11.7 41 41 SSW 15 24 29.98 1015 10 16 0.00 0.00
6:59 pm 18:59 Mostly Cloudy 77 25 54 12.2 45 45 SSW 8 13 29.99 1016 10 16 0.00 0.00
7:59 pm 19:59 Mostly Cloudy 75 23.9 58 14.4 55 55 S 12 19 30.00 1016 10 16 0.00 0.00
8:59 pm 20:59 Mostly Cloudy 73 22.8 61 16.1 66 66 S 12 19 30.01 1016 10 16 0.00 0.00
9:59 pm 21:59 Partly Cloudy 71 21.7 62 16.7 73 73 S 13 20 30.04 1017 10 16 0.00 0.00
10:59 pm 22:59 Clear 69 20.6 61 16.1 76 76 S 10 17 30.04 1017 10 16 0.00 0.00
11:59 pm 23:59 Clear 68 20 61 16.1 78 78 S 9 15 30.04 1017 10 16 0.00 0.00

Powered by AerisWeather